DSP F19

operational
NORAD ID: 25669 Int'l Des: 1999-017 Owner: AFSMC Country: US
MEOELLIPTICALHEO_ELLIPTICAL

Über DSP F19

Beschreibung wird geladen...

Live-Position

3D-Globus wird geladen...

Nächste Überflüge

Höhenverlauf

Altitude vs Time

uPlot chart will show altitude changes over time

Zweizeiliger Elementsatz

1 25669U 99017A 25278.94156214 -.00000028 00000-0 43388-3 0 9990
2 25669 28.7731 152.7710 7065213 1.9571 359.9703 2.33040243 12367
Epoch: 5. Okt. 2025 • Age: 11 hours

Aktueller Status

Höhe 5038.3 km
Geschwindigkeit 7.30 km/s
Subsatellitenpunkt 28.88°N, 85.01°E
Startdatum 9. Apr. 1999
Alter 26.4 years
Typ military

Technische Details

Klassifizierung Payload
Masse 2360.00 kg
Trockenmasse 2300.00 kg
Gesamtmasse 2360.00 kg
Länge 10.00 m
Durchmesser 3.30 m
Spannweite 11.50 m
Form Box + Cyl + 2 Pan
Hersteller TRW
Bus-Typ DSP B18
Phasenstatus In Orbit
Besitzer/Staat AFSMC/US

Große Konstellationen

Loading constellations...